Regional Weather Roundup
Issued by NWS

Home | Current Version | Previous Version | Text Only | Print | Product List | Glossary On
Versions: 1 2 3 4 5 6 7 8 9 10 11 12 13 14 15 16 17 18 19 20 21 22 23 24 25 26 27 28 29 30 31 32 33 34 35 36 37 38 39 40 41 42 43 44 45 46 47 48 49 50
000
ASUS46 KPQR 231110
RWROR

OREGON REGIONAL WEATHER ROUNDUP
NATIONAL WEATHER SERVICE PORTLAND OR
400 AM PDT SAT AUG 23 2014

NOTE: "FAIR" INDICATES FEW OR NO CLOUDS BELOW 12,000 FEET WITH
NO SIGNIFICANT WEATHER AND/OR OBSTRUCTIONS TO VISIBILITY.

ORZ001>013-231200-
NORTHWEST OREGON


CITY           SKY/WX    TMP DP  RH WIND       PRES   REMARKS
ASTORIA        CLOUDY    57  55  93 S5        30.11S
NEWPORT        FAIR      48  48 100 E3        30.12F FOG
PORTLAND       FAIR      60  56  86 NW3       30.09R
VANCOUVER WA   FAIR      58  53  84 CALM      30.09R
SCAPPOOSE      FAIR      59  52  77 NE5       30.09R
HILLSBORO      FAIR      58  51  78 CALM      30.08R
AURORA         CLEAR     57  50  77 CALM      30.09R
MCMINNVILLE    FAIR      57  51  80 W3        30.09R
SALEM          CLEAR     55  51  86 CALM      30.07R
CORVALLIS      FAIR      57  48  72 CALM      30.09R
EUGENE         CLEAR     55  48  77 CALM      30.07S
$$

ORZ021-028-231200-
SOUTHWEST OREGON


CITY           SKY/WX    TMP DP  RH WIND       PRES   REMARKS
NORTH BEND     CLEAR     54  54 100 N3        30.07F
BROOKINGS      MOSUNNY   64  55  72 CALM      29.94S
ROSEBURG       CLEAR     60  51  72 CALM      30.05R
SEXTON SUMMIT  CLEAR     56  44  64 E5        30.10R
MEDFORD        CLEAR     58  48  69 CALM      30.04R
$$

ORZ009-041-231200-
COLUMBIA GORGE


CITY           SKY/WX    TMP DP  RH WIND       PRES   REMARKS
TROUTDALE      FAIR      58  53  84 CALM      30.07S
THE DALLES     CLEAR     63  54  72 NW9       30.07R
$$

ORZ029>031-042>050-061>064-231200-
EASTERN OREGON


CITY           SKY/WX    TMP DP  RH WIND       PRES   REMARKS
REDMOND        CLEAR     46  41  82 S3        30.14R
BEND           SUNNY     48  41  76 CALM      30.16S
KLAMATH FALLS  CLEAR     49  38  65 N3        30.13R
LAKEVIEW       CLEAR     48  34  57 N9        30.17R
HERMISTON      CLEAR     66  51  58 N8        30.05R
PENDLETON      CLEAR     54  45  71 W5        30.06S
JOHN DAY       CLOUDY    56  46  67 N3        30.12S
MEACHAM        CLEAR     42  41  96 CALM      30.12S
LA GRANDE      MOCLDY    50  37  62 CALM      30.07S
BAKER CITY     MOCLDY    50  44  80 W7        30.08R
BURNS          CLEAR     50  39  66 W9        30.11F
ROME             N/A     45  31  58 S9        30.09S
ONTARIO        CLEAR     59  43  55 W3        30.02R
$$


USA.gov is the U.S. government's official web portal to all federal, state and local government web resources and services.